Weather History for KLBF - February, 2013

Change the Weather History Date:

Sunday, February 24, 2013

  Actual Average Record
Temperature  
Mean Temperature 24 °F 32 °F  
Max Temperature 34 °F 46 °F 73 °F (1995)
Min Temperature 14 °F 17 °F -12 °F (2003)
Degree Days  
Heating Degree Days 41 33  
Month to date heating degree days 849 877  
Since 1 July heating degree days 4804 4897  
Cooling Degree Days 0 0  
Month to date cooling degree days 0 0  
Year to date cooling degree days 0 0  
Moisture  
Dew Point 19 °F    
Average Humidity 77    
Maximum Humidity 92    
Minimum Humidity 61    
Precipitation  
Precipitation T in 0.02 in 0.42 in (2007)
Month to date precipitation 1.04 0.40  
Year to date precipitation 1.28 0.74  
Snow  
Snow T in 0.10 in 2.50 in (2007)
Month to date snowfall 11.0 4.5  
Since 1 July snowfall 19.9 20.1  
Snow Depth 3.00 in    
Sea Level Pressure  
Sea Level Pressure 29.91 in    
Wind  
Wind Speed 7 mph (North)    
Max Wind Speed 24 mph    
Max Gust Speed 30 mph    
Visibility 5 miles    
Events      
T = Trace of Precipitation, MM = Missing Value Source: NWS Daily Summary

Daily Weather History Graph

Daily Weather History Graph

Search for Another Location

Airport or City:

Trip Planner

Search our weather history database for the weather conditions in past years. The results will help you decide how hot, cold, wet, or windy it might be!

Date:

Astronomy

Feb. 24, 2013 Rise Set
Actual Time 7:24 AM CST 6:28 PM CST
Civil Twilight 6:56 AM CST 6:55 PM CST
Nautical Twilight 6:24 AM CST 7:27 PM CST
Astronomical Twilight 5:52 AM CST 7:59 PM CST
Moon 5:41 PM CST (2/24) 6:22 AM CST (2/24)
Length of Visible Light 11h 59m
Length of Day
11h 04m
Waxing Gibbous, 99% of the Moon is Illuminated
Feb 24
Waxing Gibbous
Feb 25
Full
Mar 4
Last Quarter
Mar 11
New
Mar 19
First Quarter

Hourly Weather History & Observations

Time (CST) Temp. Windchill Dew Point Humidity Pressure Visibility Wind Dir Wind Speed Gust Speed Precip Events Conditions
12:31 AM 15.8 °F - 8.6 °F 73% 29.76 in 0.2 mi Calm Calm - N/A   Haze
12:53 AM 15.1 °F - 10.0 °F 80% 29.86 in 0.2 mi Calm Calm - N/A   Haze
1:53 AM 17.1 °F - 10.9 °F 77% 29.86 in 0.2 mi Calm Calm - N/A   Haze
2:49 AM 19.4 °F - 12.2 °F 74% 29.78 in 0.2 mi Calm Calm - N/A   Haze
2:53 AM 19.0 °F - 12.0 °F 74% 29.87 in 0.2 mi Calm Calm - N/A   Haze
3:12 AM 19.4 °F 14.3 °F 12.2 °F 74% 29.77 in 0.8 mi NNW 3.5 mph - N/A   Haze
3:15 AM 19.4 °F - 12.2 °F 74% 29.77 in 1.0 mi Calm Calm - N/A   Haze
3:19 AM 19.4 °F - 12.2 °F 74% 29.77 in 2.0 mi Calm Calm - N/A   Haze
3:32 AM 19.4 °F - 12.2 °F 74% 29.77 in 3.0 mi Calm Calm - N/A   Haze
3:44 AM 19.4 °F - 14.0 °F 80% 29.77 in 3.0 mi Calm Calm - N/A   Haze
3:53 AM 19.9 °F 14.9 °F 12.9 °F 74% 29.85 in 3.0 mi West 3.5 mph - N/A   Haze
4:10 AM 19.4 °F 11.5 °F 14.0 °F 80% 29.77 in 1.5 mi WNW 5.8 mph - N/A   Haze
4:12 AM 19.4 °F 11.5 °F 14.0 °F 80% 29.77 in 0.8 mi WNW 5.8 mph - N/A   Haze
4:18 AM 19.4 °F 14.3 °F 14.0 °F 80% 29.77 in 0.2 mi WNW 3.5 mph - N/A   Haze
4:53 AM 19.9 °F - 15.1 °F 81% 29.85 in 0.2 mi Calm Calm - N/A   Haze
5:19 AM 21.2 °F - 15.8 °F 80% 29.77 in 0.8 mi Calm Calm - N/A   Haze
5:25 AM 21.2 °F - 17.6 °F 86% 29.77 in 1.5 mi Calm Calm - N/A   Haze
5:30 AM 21.2 °F 16.4 °F 15.8 °F 80% 29.78 in 2.0 mi SSE 3.5 mph - N/A   Haze
5:33 AM 21.2 °F - 15.8 °F 80% 29.78 in 2.5 mi Calm Calm - N/A   Haze
5:37 AM 21.2 °F - 15.8 °F 80% 29.78 in 3.0 mi Calm Calm - N/A   Haze
5:53 AM 21.0 °F - 15.1 °F 78% 29.86 in 3.0 mi Calm Calm - N/A   Haze
6:17 AM 21.2 °F - 15.8 °F 80% 29.78 in 2.5 mi Calm Calm - N/A   Haze
6:33 AM 21.2 °F 16.4 °F 15.8 °F 80% 29.79 in 3.0 mi East 3.5 mph - N/A   Haze
6:43 AM 21.2 °F - 15.8 °F 80% 29.80 in 2.5 mi Calm Calm - N/A   Haze
6:48 AM 21.2 °F - 15.8 °F 80% 29.80 in 3.0 mi Calm Calm - N/A   Haze
6:53 AM 21.9 °F - 17.1 °F 82% 29.89 in 3.0 mi Calm Calm - N/A   Haze
7:37 AM 21.2 °F - 15.8 °F 80% 29.83 in 2.5 mi Calm Calm - N/A   Haze
7:53 AM 21.9 °F - 17.1 °F 82% 29.93 in 2.5 mi Calm Calm - N/A   Haze
8:53 AM 24.1 °F - 19.0 °F 81% 29.96 in 3.0 mi Calm Calm - N/A   Haze
9:53 AM 27.0 °F 23.0 °F 21.9 °F 81% 29.99 in 4.0 mi East 3.5 mph - N/A   Haze
10:53 AM 30.9 °F 24.3 °F 25.0 °F 79% 30.00 in 7.0 mi NNE 6.9 mph - N/A   Overcast
11:53 AM 32.0 °F 22.1 °F 23.0 °F 69% 30.01 in 10.0 mi North 13.8 mph - N/A   Overcast
12:53 PM 33.1 °F 23.0 °F 24.1 °F 70% 29.99 in 10.0 mi North 15.0 mph - N/A   Overcast
1:53 PM 33.1 °F 23.0 °F 21.9 °F 64% 29.99 in 10.0 mi North 15.0 mph - N/A   Overcast
2:53 PM 34.0 °F 24.2 °F 23.0 °F 64% 29.98 in 10.0 mi NNE 15.0 mph - N/A   Mostly Cloudy
3:53 PM 34.0 °F 25.0 °F 24.1 °F 67% 29.98 in 10.0 mi NNE 12.7 mph - N/A   Overcast
4:53 PM 34.0 °F 22.7 °F 23.0 °F 64% 29.99 in 10.0 mi North 19.6 mph 24.2 mph N/A   Overcast
5:53 PM 33.1 °F 22.6 °F 25.0 °F 72% 30.02 in 10.0 mi North 16.1 mph 24.2 mph N/A   Overcast
6:53 PM 33.1 °F 24.9 °F 27.0 °F 78% 30.07 in 10.0 mi NE 10.4 mph - N/A   Overcast
7:12 PM 33.8 °F 27.0 °F 26.6 °F 75% 30.00 in 10.0 mi NNE 8.1 mph - N/A   Overcast
7:53 PM 33.1 °F 26.9 °F 28.0 °F 82% 30.10 in 10.0 mi North 6.9 mph - N/A   Overcast
8:23 PM 33.8 °F 26.4 °F 26.6 °F 75% 30.03 in 10.0 mi NNE 9.2 mph - N/A   Overcast
8:53 PM 32.0 °F 24.2 °F 27.0 °F 82% 30.12 in 10.0 mi North 9.2 mph - N/A   Overcast
9:53 PM 32.0 °F 24.8 °F 28.0 °F 85% 30.13 in 10.0 mi North 8.1 mph - N/A   Overcast
10:53 PM 30.9 °F 25.2 °F 28.0 °F 89% 30.12 in 10.0 mi North 5.8 mph - N/A   Overcast
11:53 PM 30.0 °F - 27.0 °F 88% 30.12 in 8.0 mi Calm Calm - N/A   Overcast